Weather Roundup
Issued by NWS Springfield, MO

Home | Current Version | Previous Version | Text Only | Print | Product List | Glossary On
Versions: 1 2 3 4 5 6 7 8 9 10 11 12 13 14 15 16 17 18 19 20 21 22 23 24 25 26 27 28 29 30 31 32 33 34 35 36 37 38 39 40 41 42 43 44 45 46 47 48 49 50
170
NZUS99 KSGF 050107
HRRSGF

HOURLY WEATHER
NATIONAL WEATHER SERVICE SPRINGFIELD MO
800 PM CDT WED MAY 04 2016

......SGF CWA......

CITY           SKY/WX    TMP DP  RH WIND       PRES   REMARKS
SPRINGFIELD    CLEAR     60  39  45 N8        29.93R
JOPLIN         CLEAR     62  42  47 N6        29.96S
WEST PLAINS    CLEAR     63  33  32 N10G20    29.90R
ROLLA          CLEAR     59  36  42 NW8       29.90R
OSAGE BEACH    CLEAR     63  34  34 NW7       29.93R
BRANSON        CLEAR     64  37  36 NW12G18   29.94R

......SURROUNDING SGF CWA......

CITY           SKY/WX    TMP DP  RH WIND       PRES   REMARKS
CHANUTE        CLEAR     66  38  35 NW7       29.98S
PARSONS        CLEAR     64  42  44 N6        29.99S
COFFEYVILLE    CLEAR     65  41  41 N8        29.98S
EMPORIA        CLEAR     66  35  31 N6        30.00R
GROVE OK       CLEAR     66  41  39 NW6       29.98R
ROGERS AR      CLEAR     64  38  38 N5        29.96S
SILOAM SPRINGS CLEAR     63  37  39 NW9       29.97S
HARRISON AR    CLEAR     63  39  41 NW6       29.93R
NEAR YELLVILLE CLEAR    N/A N/A N/A NW5       29.87R

......KANSAS AND MISSOURI......

CITY           SKY/WX    TMP DP  RH WIND       PRES   REMARKS
KANSAS CTY INT CLEAR     63  36  36 N8        29.97S
DOWNTOWN KC    CLEAR     66  34  30 N10       29.96R
COLUMBIA       CLEAR     61  36  39 N10       29.93R
SEDALIA        CLEAR     64  38  38 N12       29.95S
ST JOSEPH      CLEAR     65  36  34 N12       29.97F
ST LOUIS       PTCLDY    61  34  36 NW10      29.89R
SPIRIT OF STL  PTCLDY    61  35  37 N8        29.89R
KIRKSVILLE     CLEAR     59  35  40 NW6       29.93S
WICHITA        CLEAR     69  33  26 N12       30.02S
TOPEKA         CLEAR     65  36  34 N7        29.99S
OLATHE         CLEAR     65  34  31 N10       29.97S

......TENNESSEE......

CITY           SKY/WX    TMP DP  RH WIND       PRES   REMARKS
MEMPHIS        PTCLDY    69  44  40 N7        29.80R
NASHVILLE      PTCLDY    59  49  69 N8        29.78R

......ARKANSAS.......

CITY           SKY/WX    TMP DP  RH WIND       PRES   REMARKS
FAYETTEVILLE   CLEAR     62  40  44 NW7       29.95R
FT SMITH       CLEAR     71  35  26 N8        29.93R
LITTLE ROCK    CLEAR     72  40  31 N10       29.85R

......OKLAHOMA.......

CITY           SKY/WX    TMP DP  RH WIND       PRES   REMARKS
TULSA          CLEAR     68  41  37 N8        29.96R
PONCA CITY     CLEAR     69  39  33 N8        30.00S
MCALESTER      CLEAR     73  41  31 N9        29.96R
OKLAHOMA CITY  CLEAR     73  42  32 N12       30.00S

......IOWA............

CITY           SKY/WX    TMP DP  RH WIND       PRES   REMARKS
DES MOINES     CLEAR     65  30  27 N12       29.93F
QUAD CITIES    CLEAR     60  32  34 N7        29.86R

......ILLINOIS........

CITY           SKY/WX    TMP DP  RH WIND       PRES   REMARKS
QUINCY         PTCLDY    57  38  48 NW6       29.88S
CHICAGO        CLOUDY    44  35  70 N14       29.85R




USA.gov is the U.S. government's official web portal to all federal, state and local government web resources and services.